Location: Madden
(51.3728°N, 114.3297°W)
Time: 19:18:37
(UTC+00:00)

CUTE-I - Pass Details

Date: 15 December 2023
Orbit: 807 x 823 km, 98.7° (Epoch: 04 March)

Event Time Altitude Azimuth Distance (km) Brightness Sun altitude
Rises 02:49:41 0° 227° (SW) 3,327 ? -29.9°
Reaches altitude 10° 02:54:18 10° 264° (W) 2,408 ? -30.6°
Maximum altitude 02:55:30 11° 277° (W) 2,361 ? -30.8°
Drops below altitude 10° 02:56:43 10° 291° (WNW) 2,415 ? -31.0°
Sets 03:01:24 0° 328° (NNW) 3,360 ? -31.7°
